Time,TemperatureF,DewpointF,PressureIn,WindDirection,WindDirectionDegrees,WindSpeedMPH,WindSpeedGustMPH,Humidity,HourlyPrecipIn,Conditions,Clouds,dailyrainin,SoftwareType,DateUTC
2013-10-02 00:13:00,49.0,38.0,29.89,South,176,0.0,0.0,66,-99.99,,,-99.99,,2013-10-02 05:13:00,
2013-10-02 00:23:00,47.0,38.0,29.90,SSW,193,0.0,0.0,72,-99.99,,,-99.99,,2013-10-02 05:23:00,
2013-10-02 00:43:00,47.0,38.0,29.90,SE,136,0.0,0.0,70,-99.99,,,-99.99,,2013-10-02 05:43:00,
2013-10-02 00:53:00,48.0,40.0,29.90,SE,128,0.0,0.0,73,-99.99,,,-99.99,,2013-10-02 05:53:00,
2013-10-02 01:03:00,48.0,40.0,29.90,SE,128,0.0,0.0,73,-99.99,,,-99.99,,2013-10-02 06:03:00,
2013-10-02 01:12:00,48.0,40.0,29.90,SE,128,0.0,0.0,73,-99.99,,,-99.99,,2013-10-02 06:12:00,
2013-10-02 01:22:00,49.0,39.0,29.90,SE,131,1.0,0.0,67,-99.99,,,-99.99,,2013-10-02 06:22:00,
2013-10-02 01:42:00,50.0,38.0,29.90,ESE,122,0.0,0.0,64,-99.99,,,-99.99,,2013-10-02 06:42:00,
2013-10-02 01:52:00,49.0,39.0,29.90,ESE,106,0.0,0.0,67,-99.99,,,-99.99,,2013-10-02 06:52:00,
2013-10-02 02:12:00,45.0,38.0,29.90,ESE,107,0.0,0.0,76,-99.99,,,-99.99,,2013-10-02 07:12:00,
2013-10-02 02:22:00,45.0,38.0,29.90,ESE,107,0.0,0.0,76,-99.99,,,-99.99,,2013-10-02 07:22:00,
2013-10-02 02:42:00,48.0,39.0,29.91,ESE,107,0.0,0.0,70,-99.99,,,-99.99,,2013-10-02 07:42:00,
2013-10-02 02:52:00,47.0,39.0,29.91,ESE,107,0.0,0.0,74,-99.99,,,-99.99,,2013-10-02 07:52:00,
2013-10-02 03:03:00,47.0,39.0,29.91,ESE,107,0.0,0.0,74,-99.99,,,-99.99,,2013-10-02 08:03:00,
2013-10-02 03:11:00,47.0,39.0,29.91,ESE,107,0.0,0.0,74,-99.99,,,-99.99,,2013-10-02 08:11:00,
2013-10-02 03:22:00,43.0,37.0,29.92,SE,125,0.0,0.0,80,-99.99,,,-99.99,,2013-10-02 08:22:00,
2013-10-02 03:42:00,43.0,37.0,29.91,SE,125,0.0,0.0,80,-99.99,,,-99.99,,2013-10-02 08:42:00,
2013-10-02 03:52:00,44.0,37.0,29.91,SE,125,0.0,0.0,77,-99.99,,,-99.99,,2013-10-02 08:52:00,
2013-10-02 04:01:00,44.0,37.0,29.91,SE,125,0.0,0.0,77,-99.99,,,-99.99,,2013-10-02 09:01:00,
2013-10-02 04:11:00,44.0,37.0,29.91,SE,125,0.0,0.0,77,-99.99,,,-99.99,,2013-10-02 09:11:00,
2013-10-02 04:21:00,42.0,38.0,29.92,SSE,153,1.0,0.0,86,-99.99,,,-99.99,,2013-10-02 09:21:00,
2013-10-02 04:33:00,42.0,38.0,29.92,SSE,153,1.0,0.0,86,-99.99,,,-99.99,,2013-10-02 09:33:00,
2013-10-02 04:43:00,42.0,38.0,29.92,SSE,153,1.0,0.0,86,-99.99,,,-99.99,,2013-10-02 09:43:00,
2013-10-02 04:54:00,45.0,39.0,29.92,SSE,147,0.0,0.0,78,-99.99,,,-99.99,,2013-10-02 09:54:00,
2013-10-02 05:12:00,45.0,39.0,29.92,SSE,147,0.0,0.0,78,-99.99,,,-99.99,,2013-10-02 10:12:00,
2013-10-02 05:23:00,45.0,38.0,29.92,SSE,147,0.0,0.0,76,-99.99,,,-99.99,,2013-10-02 10:23:00,
2013-10-02 05:33:00,45.0,38.0,29.92,SSE,147,0.0,0.0,76,-99.99,,,-99.99,,2013-10-02 10:33:00,
2013-10-02 05:42:00,45.0,38.0,29.92,SSE,147,0.0,0.0,76,-99.99,,,-99.99,,2013-10-02 10:42:00,
2013-10-02 05:52:00,43.0,37.0,29.92,SSE,158,0.0,0.0,80,-99.99,,,-99.99,,2013-10-02 10:52:00,
2013-10-02 06:03:00,43.0,37.0,29.92,SSE,158,0.0,0.0,80,-99.99,,,-99.99,,2013-10-02 11:03:00,
2013-10-02 06:12:00,43.0,37.0,29.92,SSE,158,0.0,0.0,80,-99.99,,,-99.99,,2013-10-02 11:12:00,
2013-10-02 06:22:00,44.0,38.0,29.93,SSE,153,0.0,0.0,78,-99.99,,,-99.99,,2013-10-02 11:22:00,
2013-10-02 06:33:00,44.0,38.0,29.93,SSE,153,0.0,0.0,78,-99.99,,,-99.99,,2013-10-02 11:33:00,
2013-10-02 06:52:00,43.0,38.0,29.93,SSE,158,1.0,0.0,84,-99.99,,,-99.99,,2013-10-02 11:52:00,
2013-10-02 07:02:00,43.0,38.0,29.93,SSE,158,1.0,0.0,84,-99.99,,,-99.99,,2013-10-02 12:02:00,
2013-10-02 07:12:00,43.0,38.0,29.93,SSE,158,1.0,0.0,84,-99.99,,,-99.99,,2013-10-02 12:12:00,
2013-10-02 07:22:00,46.0,38.0,29.93,SE,130,0.0,0.0,73,-99.99,,,-99.99,,2013-10-02 12:22:00,
2013-10-02 07:32:00,46.0,38.0,29.93,SE,130,0.0,0.0,73,-99.99,,,-99.99,,2013-10-02 12:32:00,
2013-10-02 07:42:00,46.0,38.0,29.93,SE,130,0.0,0.0,73,-99.99,,,-99.99,,2013-10-02 12:42:00,
2013-10-02 07:52:00,46.0,38.0,29.93,SE,143,0.0,0.0,74,-99.99,,,-99.99,,2013-10-02 12:52:00,
2013-10-02 08:11:00,47.0,38.0,29.93,ESE,119,0.0,0.0,70,-99.99,,,-99.99,,2013-10-02 13:11:00,
2013-10-02 08:22:00,49.0,39.0,29.93,ESE,105,2.0,0.0,67,-99.99,,,-99.99,,2013-10-02 13:22:00,
2013-10-02 09:11:00,54.0,42.0,29.94,ESE,105,1.0,0.0,63,-99.99,,,-99.99,,2013-10-02 14:11:00,
2013-10-02 10:11:00,63.0,40.0,29.93,ESE,114,4.0,0.0,42,-99.99,,,-99.99,,2013-10-02 15:11:00,
2013-10-02 10:43:00,68.0,39.0,29.93,East,99,7.0,0.0,35,-99.99,,,-99.99,,2013-10-02 15:43:00,
2013-10-02 10:54:00,68.0,39.0,29.93,East,99,7.0,0.0,35,-99.99,,,-99.99,,2013-10-02 15:54:00,
2013-10-02 11:12:00,70.0,37.0,29.91,ESE,103,8.0,16.0,30,-99.99,,,-99.99,,2013-10-02 16:12:00,
2013-10-02 11:23:00,72.0,37.0,29.92,East,86,10.0,0.0,28,-99.99,,,-99.99,,2013-10-02 16:23:00,
2013-10-02 11:32:00,72.0,37.0,29.92,East,86,10.0,0.0,28,-99.99,,,-99.99,,2013-10-02 16:32:00,
2013-10-02 11:52:00,73.0,36.0,29.91,SE,137,10.0,17.0,26,-99.99,,,-99.99,,2013-10-02 16:52:00,
2013-10-02 12:12:00,72.0,36.0,29.91,East,91,0.0,0.0,27,-99.99,,,-99.99,,2013-10-02 17:12:00,
2013-10-02 12:23:00,73.0,35.0,29.90,ESE,122,0.0,0.0,25,-99.99,,,-99.99,,2013-10-02 17:23:00,
2013-10-02 12:42:00,74.0,36.0,29.89,East,96,0.0,0.0,25,-99.99,,,-99.99,,2013-10-02 17:42:00,
2013-10-02 12:52:00,75.0,36.0,29.89,ESE,122,0.0,0.0,24,-99.99,,,-99.99,,2013-10-02 17:52:00,
2013-10-02 13:02:00,75.0,36.0,29.89,ESE,122,0.0,0.0,24,-99.99,,,-99.99,,2013-10-02 18:02:00,
2013-10-02 13:12:00,75.0,36.0,29.89,ESE,122,0.0,0.0,24,-99.99,,,-99.99,,2013-10-02 18:12:00,
2013-10-02 13:21:00,77.0,35.0,29.87,SE,134,0.0,0.0,22,-99.99,,,-99.99,,2013-10-02 18:21:00,
2013-10-02 13:42:00,77.0,35.0,29.86,ESE,120,0.0,0.0,22,-99.99,,,-99.99,,2013-10-02 18:42:00,
2013-10-02 13:52:00,77.0,35.0,29.85,ESE,109,0.0,0.0,22,-99.99,,,-99.99,,2013-10-02 18:52:00,
2013-10-02 14:11:00,77.0,37.0,29.84,SE,145,0.0,0.0,24,-99.99,,,-99.99,,2013-10-02 19:11:00,
2013-10-02 14:22:00,77.0,39.0,29.82,SE,138,0.0,0.0,26,-99.99,,,-99.99,,2013-10-02 19:22:00,
2013-10-02 14:32:00,77.0,39.0,29.82,SE,138,0.0,0.0,26,-99.99,,,-99.99,,2013-10-02 19:32:00,
2013-10-02 14:42:00,77.0,39.0,29.82,SE,138,0.0,0.0,26,-99.99,,,-99.99,,2013-10-02 19:42:00,
2013-10-02 14:52:00,77.0,40.0,29.81,ESE,105,0.0,0.0,27,-99.99,,,-99.99,,2013-10-02 19:52:00,
2013-10-02 15:02:00,77.0,40.0,29.81,ESE,105,0.0,0.0,27,-99.99,,,-99.99,,2013-10-02 20:02:00,
2013-10-02 15:11:00,77.0,40.0,29.81,ESE,105,0.0,0.0,27,-99.99,,,-99.99,,2013-10-02 20:11:00,
2013-10-02 15:22:00,80.0,47.0,29.79,SE,125,0.0,0.0,31,-99.99,,,-99.99,,2013-10-02 20:22:00,
2013-10-02 15:32:00,80.0,47.0,29.79,SE,125,0.0,0.0,31,-99.99,,,-99.99,,2013-10-02 20:32:00,
2013-10-02 15:42:00,80.0,47.0,29.79,SE,125,0.0,0.0,31,-99.99,,,-99.99,,2013-10-02 20:42:00,
2013-10-02 15:52:00,80.0,48.0,29.77,SE,136,0.0,0.0,33,-99.99,,,-99.99,,2013-10-02 20:52:00,
2013-10-02 16:11:00,81.0,50.0,29.76,ESE,103,0.0,0.0,34,-99.99,,,-99.99,,2013-10-02 21:11:00,
2013-10-02 16:22:00,80.0,50.0,29.75,SW,223,0.0,0.0,35,-99.99,,,-99.99,,2013-10-02 21:22:00,
2013-10-02 16:44:00,80.0,51.0,29.75,South,174,0.0,0.0,37,-99.99,,,-99.99,,2013-10-02 21:44:00,
2013-10-02 16:55:00,80.0,53.0,29.75,ESE,104,0.0,0.0,39,-99.99,,,-99.99,,2013-10-02 21:55:00,
2013-10-02 17:13:00,80.0,53.0,29.74,ESE,115,0.0,0.0,40,-99.99,,,-99.99,,2013-10-02 22:13:00,
2013-10-02 17:24:00,80.0,53.0,29.74,ESE,115,0.0,0.0,40,-99.99,,,-99.99,,2013-10-02 22:24:00,
2013-10-02 17:33:00,80.0,53.0,29.74,ESE,115,0.0,0.0,40,-99.99,,,-99.99,,2013-10-02 22:33:00,
2013-10-02 17:44:00,80.0,53.0,29.74,ESE,115,0.0,0.0,40,-99.99,,,-99.99,,2013-10-02 22:44:00,
2013-10-02 17:54:00,79.0,56.0,29.72,SE,146,0.0,0.0,45,-99.99,,,-99.99,,2013-10-02 22:54:00,
2013-10-02 18:12:00,78.0,56.0,29.71,ESE,107,0.0,0.0,47,-99.99,,,-99.99,,2013-10-02 23:12:00,
2013-10-02 18:22:00,78.0,57.0,29.70,SE,146,0.0,0.0,48,-99.99,,,-99.99,,2013-10-02 23:22:00,
2013-10-02 18:42:00,78.0,58.0,29.70,SSE,156,0.0,0.0,50,-99.99,,,-99.99,,2013-10-02 23:42:00,
2013-10-02 18:52:00,78.0,58.0,29.70,SSE,156,0.0,0.0,50,-99.99,,,-99.99,,2013-10-02 23:52:00,
2013-10-02 19:02:00,78.0,58.0,29.70,SSE,156,0.0,0.0,50,-99.99,,,-99.99,,2013-10-03 00:02:00,
2013-10-02 19:12:00,78.0,58.0,29.70,SSE,156,0.0,0.0,50,-99.99,,,-99.99,,2013-10-03 00:12:00,
2013-10-02 20:11:00,76.0,60.0,29.71,East,101,0.0,0.0,58,-99.99,,,-99.99,,2013-10-03 01:11:00,
2013-10-02 20:23:00,76.0,60.0,29.71,East,101,0.0,0.0,58,-99.99,,,-99.99,,2013-10-03 01:23:00,
2013-10-02 20:32:00,76.0,60.0,29.71,East,101,0.0,0.0,58,-99.99,,,-99.99,,2013-10-03 01:32:00,
2013-10-02 20:42:00,76.0,60.0,29.71,East,101,0.0,0.0,58,-99.99,,,-99.99,,2013-10-03 01:42:00,
2013-10-02 21:11:00,74.0,62.0,29.71,NE,49,0.0,0.0,67,-99.99,,,-99.99,,2013-10-03 02:11:00,
2013-10-02 21:22:00,74.0,62.0,29.71,NE,49,0.0,0.0,67,-99.99,,,-99.99,,2013-10-03 02:22:00,
2013-10-02 22:11:00,69.0,63.0,29.70,ENE,60,0.0,0.0,81,-99.99,,,-99.99,,2013-10-03 03:11:00,
2013-10-02 22:22:00,67.0,63.0,29.70,East,82,0.0,0.0,87,-99.99,,,-99.99,,2013-10-03 03:22:00,
2013-10-02 22:44:00,67.0,63.0,29.69,SE,129,0.0,0.0,87,-99.99,,,-99.99,,2013-10-03 03:44:00,
2013-10-02 22:54:00,67.0,63.0,29.69,SE,129,0.0,0.0,87,-99.99,,,-99.99,,2013-10-03 03:54:00,
2013-10-02 23:05:00,67.0,63.0,29.69,SE,129,0.0,0.0,87,-99.99,,,-99.99,,2013-10-03 04:05:00,
2013-10-02 23:13:00,67.0,63.0,29.69,SE,129,0.0,0.0,87,-99.99,,,-99.99,,2013-10-03 04:13:00,
2013-10-02 23:24:00,64.0,60.0,29.74,NNE,18,0.0,0.0,87,-99.99,,,-99.99,,2013-10-03 04:24:00,
2013-10-02 23:34:00,64.0,60.0,29.74,NNE,18,0.0,0.0,87,-99.99,,,-99.99,,2013-10-03 04:34:00,
2013-10-02 23:44:00,64.0,60.0,29.74,NNE,18,0.0,0.0,87,-99.99,,,-99.99,,2013-10-03 04:44:00,
2013-10-02 23:53:00,62.0,60.0,29.76,NE,49,0.0,0.0,92,-99.99,,,-99.99,,2013-10-03 04:53:00,